User: anonymous   Login
Location: Unspecified
(0.0000°N, 0.0000°E)
Time: 11:39:57
(UTC+00:00)
Language:

CANX 3A (UNIBRITE) - Orbit

View from above orbital plane
View from above orbital plane
View from above satellite
View from above satellite

Ground track
Ground track

The orbit data is extracted from the following two-line orbital elements,

1 39092U 13009G   15107.13276652  .00000281  00000-0  11461-3 0  9999
2 39092 098.6076 305.7442 0010372 124.1049 236.1121 14.34735617111909
Epoch (UTC): 17 April 2015 03:11:11
Eccentricity: 0.0010372
inclination: 98.6076°
perigee height: 768 km
apogee height: 783 km
right ascension of ascending node: 305.7442°
argument of perigee: 124.1049°
revolutions per day: 14.34735617
mean anomaly at epoch: 236.1121°
orbit number at epoch: 11190

The dashed part of the orbit path shows where the satellite is in the earth's shadow,  

DLR